EHI
0 0 0 0 0 0 0 0 0 0 0 0 0 0 0 0 0 0 0 0 0 0 0 0 0 0 0 0 0 0 0 0 0 0 0 0 0 0 0 0 0 0 0
0 0 0 0 0 0 0 0 0 0 0 0 0 0 0 0 0 0 0 0 0 0 0 0 0 0 0 0 0 0 0 0 0 0 0 0 0 0 0 0 0 0 0
0 0 0 0 0 0 0 0 0 0 0 0 0 0 0 0 0 0 0 0 0 0 0 0 0 0 0 0 0 0 0 0 0 0 0 0 0 0 0 0 0 0 0
0 0 0 0 0 0 0 0 0 0 0 0 0 0 0 0 0 0 0 0 0 0 0 0 0 0 0 0 0 0 0 0 0 0 0 0 0 0 0 0 0 0 0
0 0 0 0 0 0 0 0 0 0 0 0 0 0 0 0 0 0 0 0 0 0 0 0 0 0 0 0 0 0 0 0 0 0 0 0 0 0 0 0 0 0 0
0 0 0 0 0 0 0 0 0 0 0 0 0 0 0 0 0 0 0 0 0 0 0 0 0 0 0 0 0 0 0 0 0 0 0 0 0 0 0 0 0 0 0
0 0 0 0 0 0 0 0 0 0 0 0 0 0 0 0 0 0 0 0 0 0 0 0 0 0 0 0 0 0 0 0 0 0 0 0 0 0 0 0 0 0 0
0 0 0 0 0 0 0 0 0 0 0 0 0 0 0 0 0 0 0 0 0 0 0 0 0 0 0 0 0 0 0 0 0 0 0 0 0 0 0 0 0 0 0
0 0 0 0 0 0 0 0 0 0 0 0 0 0 0 0 0 0 0 0 0 0 0 0 0 0 0 0 0 0 0 0 0 0 0 0 0 0 0 0 0 0 0
0 0 0 0 0 0 0 0 0 0 0 0 0 0 0 0 0 0 0 0 0 0 0 0 0 0 0 0 0 0 0 0 0 0 0 0 0 0 0 0 0 0 0
0 0 0 0 0 0 0 0 0 0 0 0 0 0 0 0 0 0 0 0 0 0 0 0 0 0 0 0 0 0 0 0 0 0 0 0 0 0 0 0 0 0 0
0 0 0 0 0 0 0 0 0 0 0 0 0 0 0 0 0 0 0 0 0 0 0 0 0 0 0 0 0 0 0 0 0 0 0 0 0 0 0 0 0 0 0
0 0 0 0 0 0 0 0 0 0 0 0 0 0 0 0 0 0 0 0 0 0 0 0 0 0 0 0 0 0 0 0 0 0 0 0 0 0 0 0 0 0 0
0 0 0 0 0 0 0 0 0 0 0 0 0 0 0 0 0 0 0 0 0 0 0 0 0 0 0 0 0 0 0 0 0 0 0 0 0 0 0 0 0 0 0
0 0 0 0 0 0 0 0 0 0 0 0 0 0 0 0 0 0 0 0 0 0 0 0 0 0 0 0 0 0 0 0 0 0 0 0 0 0 0 0 0 0 0
0 0 0 0 0 0 0 0 0 0 0 0 0 0 0 0 0 0 0 0 0 0 0 0 0 0 0 0 0 0 0 0 0 0 0 0 0 0 0 0 0 0 0
0 0 0 0 0 0 0 0 0 0 0 0 0 0 0 0 0 0 0 0 0 0 0 0 0 0 0 0 0 0 0 0 0 0 0 0 0 0 0 0 0 0 0
0 0 0 0 0 0 0 0 0 0 0 0 0 0 0 0 0 0 0 0 0 0 0 0 0 0 0 0 0 0 0 0 0 0 0 0 0 0 0 0 0 0 0
0 0 0 0 0 0 0 0 0 0 0 0 0 0 0 0 0 0 0 0 0 0 0 0 0 0 0 0 0 0 0 0 0 0 0 0 0 0 0 0 0 0 0
0 0 0 0 0 0 0 0 0 0 0 0 0 0 0 0 0 0 0 0 0 0 0 0 0 0 0 0 0 0 0 0 0 0 0 0 0 0 0 0 0 0 0
0 0 0 0 0 0 0 0 0 0 0 0 0 0 0 0 0 0 0 0 0 0 0 0 0 0 0 0 0 0 0 0 0 0 0 0 0 0 0 0 0 0 0
0 0 0 0 0 0 0 0 0 0 0 0 0 0 0 0 0 0 0 0 0 0 0 0 0 0 0 0 0 0 0 0 0 0 0 0 0 0 0 0 0 0 0
0 0 0 0 0 0 0 0 0 0 0 0 0 0 0 0 0 0 0 0 0 0 0 0 0 0 0 0 0 0 0 0 0 0 0 0 0 0 0 0 0 0 0
0 0 0 0 0 0 0 0 0 0 0 0 0 0 0 0 0 0 0 0 0 0 0 0 0 0 0 0 0 0 0 0 0 0 0 0 0 0 0 0 0 0 0
0 0 0 0 0 0 0 0 0 0 0 0 0 0 0 0 0 0 0 0 0 0 0 0 0 0 0 0 0 0 0 0 0 0 0 0 0 0 0 0 0 0 0
0 0 0 0 0 0 0 0 0 0 0 0 0 0 0 0 0 0 0 0 0 0 0 0 0 0 0 0 0 0 0 0 0 0 0 0 0 0 0 0 0 0 0
Wind_Speed
3 2 1 1 1 1 1 2 2 3 4 4 5 5 5 5 4 4 4 9 13 15 16 16 16 17 16 16 16 16 16 16 17 18 18 21 23 26 27 28 28 28 28
4 4 4 3 3 3 3 4 4 4 4 4 6 6 5 5 5 6 5 7 12 14 16 17 18 18 18 18 18 18 17 17 17 18 19 19 20 21 24 27 29 30 30
6 5 5 5 4 4 5 5 5 4 5 5 6 6 5 5 6 6 5 4 5 10 16 18 19 20 20 20 20 20 20 20 19 19 20 20 20 20 21 22 24 27 30
8 7 5 5 4 5 4 4 4 4 4 5 5 5 5 5 6 5 4 4 4 5 10 18 20 20 21 21 22 21 21 21 22 22 22 22 21 21 21 21 21 22 23
9 7 5 4 5 5 5 4 4 3 4 5 5 5 5 4 4 4 5 5 5 5 5 12 19 20 21 22 22 22 23 23 23 23 23 24 24 24 23 23 22 21 22
8 7 5 6 5 5 5 4 4 4 3 4 5 6 6 4 2 2 4 5 5 7 7 9 9 13 21 22 23 24 24 24 24 24 25 25 25 25 25 25 24 24 23
8 7 5 6 5 5 5 5 4 4 4 4 4 5 5 4 3 3 5 5 6 7 8 10 9 8 8 19 22 25 25 26 26 25 25 26 26 26 26 26 26 25 24
7 7 6 5 5 4 6 6 5 3 3 4 3 3 5 6 5 7 5 4 5 6 8 10 8 7 7 6 14 25 26 26 26 26 26 26 27 27 27 27 27 26 26
7 6 6 5 5 4 4 4 4 4 3 3 2 2 3 4 6 4 3 3 5 6 5 6 8 7 9 7 8 16 24 25 26 27 27 28 28 28 29 29 29 28 27
7 6 6 5 4 3 4 3 3 2 2 2 2 1 2 3 4 6 5 4 6 6 6 8 7 7 8 7 10 19 23 25 27 29 29 29 29 29 29 30 30 30 29
6 6 5 4 4 3 3 3 3 3 2 2 2 2 2 3 4 5 9 7 6 5 6 6 6 6 7 7 6 13 24 27 28 29 29 29 29 30 30 30 31 31 31
4 5 4 4 3 3 3 3 3 4 3 3 3 3 2 3 4 4 9 12 9 6 7 6 7 6 6 6 10 22 26 27 28 29 30 30 30 30 31 31 31 31 31
2 3 3 3 3 3 3 3 3 4 4 4 4 3 3 3 4 5 9 13 14 8 5 5 6 6 7 5 8 22 23 26 28 29 31 32 32 32 31 31 31 31 31
1 1 2 3 3 4 4 4 3 4 4 4 6 5 3 4 4 5 7 12 16 11 6 6 4 5 6 6 10 22 13 25 28 30 32 33 33 32 32 31 30 30 30
1 2 2 3 4 4 4 4 3 5 5 4 5 4 3 4 4 5 6 6 10 18 16 7 5 5 5 5 13 10 9 20 29 31 32 32 33 33 32 32 31 30 30
2 2 3 4 4 5 5 5 5 6 6 5 4 5 5 5 5 5 5 6 7 12 17 11 8 6 7 10 17 12 10 26 28 30 32 32 32 32 33 33 32 31 31
2 3 4 4 5 5 5 5 6 7 6 6 5 6 6 7 6 6 6 7 7 8 15 17 12 9 9 9 11 8 10 10 13 27 31 33 34 34 33 33 32 32 32
3 3 4 5 5 6 6 6 7 7 7 7 7 7 7 7 8 7 7 8 9 9 12 18 16 12 11 10 10 9 11 12 10 23 30 32 32 32 32 33 33 33 33
3 4 4 5 6 7 7 7 6 7 7 8 7 7 8 8 9 9 10 10 9 10 9 13 16 14 12 10 10 12 11 9 13 18 25 28 30 32 33 33 34 34 33
4 5 5 6 6 7 7 7 7 8 8 7 7 7 8 8 10 11 11 10 10 11 11 12 14 13 12 9 9 11 13 8 11 13 19 22 26 30 31 32 32 33 33
5 5 5 6 6 7 7 10 8 8 8 8 7 7 8 14 20 17 15 13 13 12 13 13 14 14 13 11 11 11 15 13 10 10 11 11 12 11 14 22 28 30 32
5 5 6 6 7 8 17 20 16 8 7 8 8 8 10 12 17 24 27 27 24 19 17 16 15 15 16 14 13 14 15 16 14 6 9 12 11 12 11 10 22 31 32
5 6 6 6 7 10 19 21 21 12 7 8 9 9 11 13 19 12 19 25 22 27 27 18 16 16 17 16 17 18 16 16 17 12 12 15 10 12 11 15 28 32 33
4 5 6 7 7 10 19 20 22 10 8 8 9 10 11 11 13 19 17 16 14 13 17 14 12 14 15 15 14 16 17 17 15 11 11 15 12 13 14 12 25 32 33
5 5 6 7 7 9 17 20 21 8 8 9 9 9 12 12 23 29 20 17 14 12 18 24 25 24 28 29 23 14 13 13 15 13 9 11 14 14 13 14 17 28 30
5 6 6 6 7 8 15 20 21 7 9 9 8 8 16 21 27 29 17 12 14 15 14 14 16 19 16 17 22 14 12 13 14 13 8 8 12 12 11 9 9 9 13
Wind_Direction
152 130 94 53 15 358 358 3 0 3 4 360 358 351 340 336 333 333 323 330 338 343 343 338 332 328 325 321 318 315 311 305 299 295 289 280 270 263 258 255 254 252 248
112 93 71 53 40 34 39 43 31 25 17 6 357 350 344 343 341 341 340 345 355 4 10 10 6 2 355 348 341 336 333 329 324 319 311 304 296 288 277 266 259 255 253
89 81 68 54 40 36 41 42 26 27 20 7 350 340 339 341 343 342 347 0 360 10 15 13 9 4 359 353 347 342 338 335 333 331 326 321 314 306 299 291 281 271 262
82 77 68 56 45 44 37 40 23 17 13 358 337 325 328 333 339 350 3 9 3 8 10 9 6 1 354 349 343 340 336 334 331 328 325 320 315 311 307 302 297 291 284
78 79 69 55 51 49 35 30 29 21 7 349 326 316 316 322 329 6 6 5 2 6 9 3 3 355 349 345 342 339 335 332 328 324 320 317 313 309 305 302 299 297 295
71 73 65 49 47 47 32 21 15 12 7 341 323 316 304 308 325 5 360 360 1 5 7 1 356 347 345 344 343 338 334 330 326 321 318 314 311 307 303 299 296 293 292
65 62 59 48 45 49 37 23 9 4 353 348 343 321 316 327 349 336 353 356 359 1 358 352 344 334 335 340 338 334 331 326 322 319 315 313 310 306 302 298 294 291 289
60 63 59 55 46 45 35 27 23 9 346 3 349 330 335 333 342 336 320 343 352 351 337 334 324 324 331 324 326 329 327 323 320 317 314 312 309 306 303 300 296 292 290
63 61 59 60 51 48 33 20 24 25 345 331 354 42 3 313 309 297 313 331 339 319 313 317 311 320 318 321 319 322 321 319 318 315 312 309 306 304 302 299 297 295 293
64 60 57 57 49 41 29 5 23 1 352 336 331 30 233 246 292 307 303 301 304 304 296 302 303 298 301 302 306 316 316 317 315 311 308 306 304 302 300 298 297 296 294
58 57 56 49 38 26 14 4 355 349 336 320 315 305 290 261 235 267 294 304 302 291 289 285 283 285 289 292 293 306 316 314 309 307 305 303 302 300 299 297 296 295 294
51 43 49 41 27 11 355 345 338 337 327 322 312 303 300 297 303 288 296 305 300 290 281 280 283 284 286 291 303 313 311 308 307 305 303 302 300 299 298 297 295 293 292
61 32 37 28 11 349 343 344 338 330 323 325 309 295 288 281 290 299 306 308 304 296 267 255 256 268 286 291 300 304 304 305 304 303 302 300 298 298 296 293 291 290 289
114 58 39 19 2 353 349 345 328 318 320 312 314 308 299 297 300 301 302 309 308 303 285 270 253 248 262 268 279 299 298 299 299 299 298 297 296 294 292 289 287 288 288
94 54 29 9 355 349 341 334 316 308 307 302 302 303 302 296 297 292 292 295 301 307 304 295 282 252 254 263 281 288 276 290 296 296 296 295 293 291 288 286 286 286 287
59 34 11 358 348 338 328 320 308 301 303 302 298 302 299 296 295 291 288 286 282 289 296 301 295 281 275 288 293 290 280 292 295 296 294 292 292 291 289 287 285 285 286
41 18 356 346 335 322 315 309 301 301 300 297 294 299 291 294 297 298 292 287 283 282 290 298 298 294 281 275 282 267 273 273 279 290 293 292 292 290 288 287 286 286 286
18 358 345 334 322 315 307 302 300 307 298 292 289 288 288 303 302 299 294 288 287 280 283 294 300 302 292 285 283 276 289 288 283 290 292 293 293 292 291 289 288 287 285
360 347 339 325 315 310 305 299 295 293 289 286 283 281 286 295 299 297 294 290 287 290 286 291 295 296 294 292 293 291 285 280 286 290 292 291 290 290 289 288 287 286 285
351 341 331 320 313 309 302 299 298 295 290 285 279 276 280 287 292 296 297 290 295 297 293 290 291 294 296 293 291 297 298 281 282 286 285 285 287 289 288 289 288 287 285
348 336 328 321 317 314 316 320 312 306 301 296 289 281 284 302 308 308 307 308 305 299 299 299 298 299 300 303 301 299 297 296 282 278 281 280 282 278 279 281 283 282 280
339 334 324 316 315 326 328 330 330 317 309 309 306 300 297 304 306 313 312 307 305 305 304 301 301 302 303 301 301 299 299 301 298 284 281 286 280 278 275 269 275 278 277
327 321 313 309 307 313 331 333 331 332 325 314 307 305 309 311 314 299 299 304 304 302 303 303 301 301 301 303 302 302 300 298 295 297 292 289 281 279 277 278 282 281 280
312 304 301 302 305 316 333 332 331 335 312 302 297 295 296 300 303 308 305 305 301 301 301 301 294 296 300 300 298 300 298 296 292 286 283 288 289 284 283 278 280 280 279
304 294 294 301 305 311 326 329 331 312 303 299 293 295 304 304 306 313 316 312 312 307 309 309 310 309 308 309 308 306 303 301 298 295 286 282 288 289 284 278 275 278 278
289 295 300 301 299 296 315 328 327 306 306 306 301 294 308 313 313 319 321 319 316 311 314 317 313 308 305 302 307 306 301 296 296 296 288 281 289 296 290 265 259 267 273